Time,TemperatureF,DewpointF,PressureIn,WindDirection,WindDirectionDegrees,WindSpeedMPH,WindSpeedGustMPH,Humidity,HourlyPrecipIn,Conditions,Clouds,dailyrainin,SoftwareType,DateUTC
2013-06-21 00:00:00,82.9,78.3,29.89,NE,37,9.0,19.0,86,0.00,,,0.00,VWS V14.01,2013-06-21 06:00:00,
2013-06-21 00:01:00,82.9,78.3,29.89,NE,49,7.0,12.0,86,0.00,,,0.00,VWS V14.01,2013-06-21 06:01:00,
2013-06-21 00:06:00,82.9,78.3,29.89,ENE,64,12.0,20.0,86,0.00,,,0.00,VWS V14.01,2013-06-21 06:06:00,
2013-06-21 00:11:00,82.8,77.8,29.89,East,99,8.0,20.0,85,0.00,,,0.00,VWS V14.01,2013-06-21 06:11:00,
2013-06-21 00:16:00,82.9,77.9,29.88,ENE,76,11.0,22.0,85,0.00,,,0.00,VWS V14.01,2013-06-21 06:16:00,
2013-06-21 00:21:00,82.9,78.3,29.88,ENE,66,5.0,22.0,86,0.00,,,0.00,VWS V14.01,2013-06-21 06:21:00,
2013-06-21 00:26:00,82.9,78.3,29.88,NE,54,12.0,22.0,86,0.00,,,0.00,VWS V14.01,2013-06-21 06:26:00,
2013-06-21 00:30:00,82.9,78.3,29.89,NE,41,13.0,22.0,86,0.00,,,0.00,VWS V14.01,2013-06-21 06:30:00,
2013-06-21 00:31:00,82.9,78.3,29.89,ENE,74,9.0,16.0,86,0.00,,,0.00,VWS V14.01,2013-06-21 06:31:00,
2013-06-21 00:36:00,82.8,78.2,29.88,NE,49,6.0,21.0,86,0.00,,,0.00,VWS V14.01,2013-06-21 06:36:00,
2013-06-21 00:41:00,82.8,78.2,29.88,ENE,63,12.0,21.0,86,0.00,,,0.00,VWS V14.01,2013-06-21 06:41:00,
2013-06-21 00:46:00,82.8,78.5,29.88,NE,41,7.0,21.0,87,0.00,,,0.00,VWS V14.01,2013-06-21 06:46:00,
2013-06-21 00:51:00,82.8,78.5,29.88,ENE,65,11.0,22.0,87,0.00,,,0.00,VWS V14.01,2013-06-21 06:51:00,
2013-06-21 00:56:00,82.8,78.5,29.88,NE,53,8.0,22.0,87,0.00,,,0.00,VWS V14.01,2013-06-21 06:56:00,
2013-06-21 01:00:00,82.7,78.1,29.88,ENE,63,14.0,22.0,86,0.00,,,0.00,VWS V14.01,2013-06-21 07:00:00,
2013-06-21 01:01:00,82.7,78.1,29.88,ENE,68,5.0,19.0,86,0.00,,,0.00,VWS V14.01,2013-06-21 07:01:00,
2013-06-21 01:06:00,82.7,78.1,29.88,ENE,63,9.0,19.0,86,0.00,,,0.00,VWS V14.01,2013-06-21 07:06:00,
2013-06-21 01:11:00,82.7,78.4,29.88,East,79,9.0,19.0,87,0.00,,,0.00,VWS V14.01,2013-06-21 07:11:00,
2013-06-21 01:16:00,82.7,78.4,29.88,NE,44,14.0,21.0,87,0.00,,,0.00,VWS V14.01,2013-06-21 07:16:00,
2013-06-21 01:21:00,82.7,78.4,29.88,NE,46,10.0,21.0,87,0.00,,,0.00,VWS V14.01,2013-06-21 07:21:00,
2013-06-21 01:26:00,82.7,78.4,29.88,ENE,68,11.0,21.0,87,0.00,,,0.00,VWS V14.01,2013-06-21 07:26:00,
2013-06-21 01:30:00,82.7,78.4,29.88,NNE,23,11.0,21.0,87,0.00,,,0.00,VWS V14.01,2013-06-21 07:30:00,
2013-06-21 01:31:00,82.6,78.3,29.88,ENE,58,9.0,12.0,87,0.00,,,0.00,VWS V14.01,2013-06-21 07:31:00,
2013-06-21 01:36:00,82.7,78.1,29.88,ENE,65,8.0,20.0,86,0.00,,,0.00,VWS V14.01,2013-06-21 07:36:00,
2013-06-21 01:41:00,82.7,78.1,29.88,East,96,11.0,20.0,86,0.00,,,0.00,VWS V14.01,2013-06-21 07:41:00,
2013-06-21 01:46:00,82.8,78.2,29.88,ENE,62,8.0,20.0,86,0.00,,,0.00,VWS V14.01,2013-06-21 07:46:00,
2013-06-21 01:51:00,82.7,78.1,29.88,East,84,11.0,20.0,86,0.00,,,0.00,VWS V14.01,2013-06-21 07:51:00,
2013-06-21 01:56:00,82.7,78.1,29.88,ENE,65,8.0,20.0,86,0.00,,,0.00,VWS V14.01,2013-06-21 07:56:00,
2013-06-21 02:00:00,82.6,78.0,29.88,NE,50,7.0,20.0,86,0.00,,,0.00,VWS V14.01,2013-06-21 08:00:00,
2013-06-21 02:01:00,82.6,78.0,29.88,East,86,8.0,11.0,86,0.00,,,0.00,VWS V14.01,2013-06-21 08:01:00,
2013-06-21 02:06:00,82.6,78.0,29.88,NE,41,9.0,17.0,86,0.00,,,0.00,VWS V14.01,2013-06-21 08:06:00,
2013-06-21 02:11:00,82.6,78.3,29.87,East,87,11.0,17.0,87,0.00,,,0.00,VWS V14.01,2013-06-21 08:11:00,
2013-06-21 02:16:00,82.5,78.2,29.87,ENE,69,8.0,17.0,87,0.00,,,0.00,VWS V14.01,2013-06-21 08:16:00,
2013-06-21 02:21:00,82.5,78.2,29.87,ENE,73,8.0,17.0,87,0.00,,,0.00,VWS V14.01,2013-06-21 08:21:00,
2013-06-21 02:26:00,82.4,78.1,29.87,ENE,61,10.0,17.0,87,0.00,,,0.00,VWS V14.01,2013-06-21 08:26:00,
2013-06-21 02:30:00,82.4,78.5,29.87,NE,34,8.0,17.0,88,0.00,,,0.00,VWS V14.01,2013-06-21 08:30:00,
2013-06-21 02:31:00,82.4,78.5,29.87,NE,39,9.0,9.0,88,0.00,,,0.00,VWS V14.01,2013-06-21 08:31:00,
2013-06-21 02:36:00,82.3,78.4,29.87,NE,53,8.0,10.0,88,0.00,,,0.00,VWS V14.01,2013-06-21 08:36:00,
2013-06-21 02:41:00,82.3,78.4,29.87,NE,36,3.0,15.0,88,0.00,,,0.00,VWS V14.01,2013-06-21 08:41:00,
2013-06-21 02:46:00,82.3,78.4,29.87,ENE,65,3.0,15.0,88,0.00,,,0.00,VWS V14.01,2013-06-21 08:46:00,
2013-06-21 02:51:00,81.9,77.7,29.87,ENE,68,6.0,15.0,87,0.00,,,0.00,VWS V14.01,2013-06-21 08:51:00,
2013-06-21 02:56:00,81.7,77.5,29.87,ENE,60,12.0,15.0,87,0.00,,,0.00,VWS V14.01,2013-06-21 08:56:00,
2013-06-21 03:00:00,81.6,77.4,29.87,NE,56,7.0,15.0,87,0.00,,,0.00,VWS V14.01,2013-06-21 09:00:00,
2013-06-21 03:01:00,81.6,77.0,29.87,NE,45,6.0,12.0,86,0.00,,,0.00,VWS V14.01,2013-06-21 09:01:00,
2013-06-21 03:06:00,81.5,76.9,29.87,ENE,59,12.0,15.0,86,0.00,,,0.00,VWS V14.01,2013-06-21 09:06:00,
2013-06-21 03:11:00,81.5,76.9,29.87,NE,56,8.0,15.0,86,0.00,,,0.00,VWS V14.01,2013-06-21 09:11:00,
2013-06-21 03:16:00,81.4,76.8,29.87,ENE,72,8.0,15.0,86,0.00,,,0.00,VWS V14.01,2013-06-21 09:16:00,
2013-06-21 03:21:00,81.3,76.7,29.87,East,79,9.0,15.0,86,0.00,,,0.00,VWS V14.01,2013-06-21 09:21:00,
2013-06-21 03:26:00,81.3,77.1,29.87,NNE,15,6.0,15.0,87,0.00,,,0.00,VWS V14.01,2013-06-21 09:26:00,
2013-06-21 03:30:00,81.3,77.4,29.87,NE,49,2.0,15.0,88,0.00,,,0.00,VWS V14.01,2013-06-21 09:30:00,
2013-06-21 03:31:00,81.3,77.4,29.87,NNE,24,7.0,9.0,88,0.00,,,0.00,VWS V14.01,2013-06-21 09:31:00,
2013-06-21 03:36:00,81.3,77.4,29.87,NNE,26,5.0,12.0,88,0.00,,,0.00,VWS V14.01,2013-06-21 09:36:00,
2013-06-21 03:41:00,81.2,77.3,29.87,NE,41,5.0,14.0,88,0.00,,,0.00,VWS V14.01,2013-06-21 09:41:00,
2013-06-21 03:46:00,81.2,77.3,29.86,ENE,73,3.0,14.0,88,0.00,,,0.00,VWS V14.01,2013-06-21 09:46:00,
2013-06-21 03:51:00,81.2,77.3,29.86,NE,50,5.0,14.0,88,0.00,,,0.00,VWS V14.01,2013-06-21 09:51:00,
2013-06-21 03:56:00,81.3,77.4,29.87,NE,53,1.0,14.0,88,0.00,,,0.00,VWS V14.01,2013-06-21 09:56:00,
2013-06-21 04:00:00,81.3,77.4,29.87,ENE,65,6.0,14.0,88,0.00,,,0.00,VWS V14.01,2013-06-21 10:00:00,
2013-06-21 04:01:00,81.3,77.4,29.87,East,84,6.0,8.0,88,0.00,,,0.00,VWS V14.01,2013-06-21 10:01:00,
2013-06-21 04:06:00,81.2,77.3,29.87,NE,53,3.0,14.0,88,0.00,,,0.00,VWS V14.01,2013-06-21 10:06:00,
2013-06-21 04:11:00,81.3,77.1,29.87,NE,47,5.0,14.0,87,0.00,,,0.00,VWS V14.01,2013-06-21 10:11:00,
2013-06-21 04:16:00,81.3,76.7,29.87,NE,44,8.0,15.0,86,0.00,,,0.00,VWS V14.01,2013-06-21 10:16:00,
2013-06-21 04:21:00,81.4,76.8,29.86,NNE,32,7.0,15.0,86,0.00,,,0.00,VWS V14.01,2013-06-21 10:21:00,
2013-06-21 04:26:00,81.5,77.3,29.87,ENE,67,7.0,18.0,87,0.00,,,0.00,VWS V14.01,2013-06-21 10:26:00,
2013-06-21 04:30:00,81.4,77.2,29.87,NNE,30,10.0,18.0,87,0.00,,,0.00,VWS V14.01,2013-06-21 10:30:00,
2013-06-21 04:31:00,81.4,77.2,29.86,East,80,5.0,15.0,87,0.00,,,0.00,VWS V14.01,2013-06-21 10:31:00,
2013-06-21 04:36:00,81.4,77.5,29.86,ENE,70,3.0,15.0,88,0.00,,,0.00,VWS V14.01,2013-06-21 10:36:00,
2013-06-21 04:41:00,81.3,77.4,29.86,NNE,27,9.0,15.0,88,0.00,,,0.00,VWS V14.01,2013-06-21 10:41:00,
2013-06-21 04:46:00,81.3,77.8,29.86,NE,36,4.0,15.0,89,0.00,,,0.00,VWS V14.01,2013-06-21 10:46:00,
2013-06-21 04:51:00,81.3,77.8,29.86,NNW,345,4.0,15.0,89,0.00,,,0.00,VWS V14.01,2013-06-21 10:51:00,
2013-06-21 04:56:00,81.2,78.0,29.86,NE,34,3.0,15.0,90,0.00,,,0.00,VWS V14.01,2013-06-21 10:56:00,
2013-06-21 05:00:00,81.2,78.0,29.86,NNE,30,4.0,15.0,90,0.00,,,0.00,VWS V14.01,2013-06-21 11:00:00,
2013-06-21 05:01:00,81.2,78.0,29.86,NE,41,6.0,10.0,90,0.00,,,0.00,VWS V14.01,2013-06-21 11:01:00,
2013-06-21 05:06:00,81.2,78.0,29.86,North,354,13.0,13.0,90,0.00,,,0.00,VWS V14.01,2013-06-21 11:06:00,
2013-06-21 05:11:00,81.2,78.0,29.86,ENE,72,4.0,16.0,90,0.00,,,0.00,VWS V14.01,2013-06-21 11:11:00,
2013-06-21 05:16:00,81.3,78.1,29.86,NE,56,13.0,16.0,90,0.00,,,0.00,VWS V14.01,2013-06-21 11:16:00,
2013-06-21 05:21:00,81.4,77.8,29.86,ENE,69,7.0,16.0,89,0.00,,,0.00,VWS V14.01,2013-06-21 11:21:00,
2013-06-21 05:26:00,81.5,77.9,29.86,East,101,5.0,16.0,89,0.00,,,0.00,VWS V14.01,2013-06-21 11:26:00,
2013-06-21 05:30:00,81.6,77.7,29.86,ENE,75,6.0,16.0,88,0.00,,,0.00,VWS V14.01,2013-06-21 11:30:00,
2013-06-21 05:31:00,81.6,77.7,29.86,NE,39,2.0,8.0,88,0.00,,,0.00,VWS V14.01,2013-06-21 11:31:00,
2013-06-21 05:36:00,81.7,77.5,29.86,ENE,58,5.0,17.0,87,0.00,,,0.00,VWS V14.01,2013-06-21 11:36:00,
2013-06-21 05:41:00,81.9,77.7,29.87,ENE,69,9.0,17.0,87,0.00,,,0.00,VWS V14.01,2013-06-21 11:41:00,
2013-06-21 05:46:00,82.0,77.4,29.87,NE,49,9.0,17.0,86,0.00,,,0.00,VWS V14.01,2013-06-21 11:46:00,
2013-06-21 05:51:00,82.2,77.2,29.87,NE,51,12.0,21.0,85,0.00,,,0.00,VWS V14.01,2013-06-21 11:51:00,
2013-06-21 05:56:00,82.4,77.4,29.87,ENE,76,10.0,21.0,85,0.00,,,0.00,VWS V14.01,2013-06-21 11:56:00,
2013-06-21 06:00:00,82.5,77.5,29.88,ENE,75,8.0,11.0,85,0.00,,,0.00,VWS V14.01,2013-06-21 12:00:00,
2013-06-21 06:05:00,82.5,77.5,29.89,NE,56,9.0,21.0,85,0.00,,,0.00,VWS V14.01,2013-06-21 12:05:00,
2013-06-21 06:10:00,82.4,77.8,29.89,NNE,30,9.0,21.0,86,0.00,,,0.00,VWS V14.01,2013-06-21 12:10:00,
2013-06-21 06:15:00,82.3,77.3,29.89,ENE,60,8.0,21.0,85,0.00,,,0.00,VWS V14.01,2013-06-21 12:15:00,
2013-06-21 06:20:00,82.5,77.5,29.89,East,98,13.0,21.0,85,0.00,,,0.00,VWS V14.01,2013-06-21 12:20:00,
2013-06-21 06:25:00,82.8,77.8,29.89,NE,52,5.0,21.0,85,0.00,,,0.00,VWS V14.01,2013-06-21 12:25:00,
2013-06-21 06:30:00,83.0,78.0,29.90,NE,53,12.0,12.0,85,0.00,,,0.00,VWS V14.01,2013-06-21 12:30:00,
2013-06-21 06:35:00,83.2,77.9,29.90,East,97,12.0,17.0,84,0.00,,,0.00,VWS V14.01,2013-06-21 12:35:00,
2013-06-21 06:40:00,83.2,77.9,29.90,NE,42,7.0,21.0,84,0.00,,,0.00,VWS V14.01,2013-06-21 12:40:00,
2013-06-21 06:45:00,83.3,78.3,29.90,NE,41,10.0,21.0,85,0.00,,,0.00,VWS V14.01,2013-06-21 12:45:00,
2013-06-21 06:50:00,83.4,78.1,29.91,NE,44,10.0,21.0,84,0.00,,,0.00,VWS V14.01,2013-06-21 12:50:00,
2013-06-21 06:55:00,83.6,77.9,29.91,ENE,74,7.0,21.0,83,0.00,,,0.00,VWS V14.01,2013-06-21 12:55:00,
2013-06-21 07:00:00,83.7,77.6,29.91,East,100,12.0,18.0,82,0.00,,,0.00,VWS V14.01,2013-06-21 13:00:00,
2013-06-21 07:05:00,83.6,77.9,29.91,East,96,11.0,20.0,83,0.00,,,0.00,VWS V14.01,2013-06-21 13:05:00,
2013-06-21 07:10:00,83.5,77.8,29.91,East,79,15.0,20.0,83,0.00,,,0.00,VWS V14.01,2013-06-21 13:10:00,
2013-06-21 07:15:00,83.3,78.0,29.91,ENE,60,7.0,20.0,84,0.00,,,0.00,VWS V14.01,2013-06-21 13:15:00,
2013-06-21 07:20:00,83.2,77.9,29.91,NE,47,14.0,21.0,84,0.00,,,0.00,VWS V14.01,2013-06-21 13:20:00,
2013-06-21 07:25:00,83.4,77.7,29.92,NE,54,15.0,24.0,83,0.00,,,0.00,VWS V14.01,2013-06-21 13:25:00,
2013-06-21 07:30:00,83.7,78.0,29.92,NE,41,10.0,24.0,83,0.00,,,0.00,VWS V14.01,2013-06-21 13:30:00,
2013-06-21 07:31:00,83.7,78.0,29.92,NE,34,10.0,11.0,83,0.00,,,0.00,VWS V14.01,2013-06-21 13:31:00,
2013-06-21 07:36:00,83.9,77.8,29.92,ENE,73,9.0,20.0,82,0.00,,,0.00,VWS V14.01,2013-06-21 13:36:00,
2013-06-21 07:41:00,84.0,77.9,29.92,NE,49,11.0,21.0,82,0.00,,,0.00,VWS V14.01,2013-06-21 13:41:00,
2013-06-21 07:46:00,84.2,77.7,29.92,East,84,22.0,22.0,81,0.00,,,0.00,VWS V14.01,2013-06-21 13:46:00,
2013-06-21 07:51:00,84.1,77.6,29.92,NE,37,15.0,23.0,81,0.00,,,0.00,VWS V14.01,2013-06-21 13:51:00,
2013-06-21 07:56:00,84.2,77.7,29.92,ENE,67,20.0,23.0,81,0.00,,,0.00,VWS V14.01,2013-06-21 13:56:00,
2013-06-21 08:00:00,84.3,77.8,29.92,ENE,58,10.0,23.0,81,0.00,,,0.00,VWS V14.01,2013-06-21 14:00:00,
2013-06-21 08:01:00,84.3,77.8,29.92,ENE,77,18.0,22.0,81,0.00,,,0.00,VWS V14.01,2013-06-21 14:01:00,
2013-06-21 08:06:00,84.1,78.0,29.92,NE,56,13.0,22.0,82,0.00,,,0.00,VWS V14.01,2013-06-21 14:06:00,
2013-06-21 08:11:00,83.7,77.6,29.92,ENE,61,11.0,22.0,82,0.00,,,0.00,VWS V14.01,2013-06-21 14:11:00,
2013-06-21 08:16:00,83.9,77.8,29.92,NE,49,9.0,22.0,82,0.00,,,0.00,VWS V14.01,2013-06-21 14:16:00,
2013-06-21 08:21:00,84.0,77.9,29.92,ENE,60,11.0,22.0,82,0.00,,,0.00,VWS V14.01,2013-06-21 14:21:00,
2013-06-21 08:26:00,84.3,78.2,29.92,East,79,10.0,22.0,82,0.00,,,0.00,VWS V14.01,2013-06-21 14:26:00,
2013-06-21 08:30:00,84.5,78.0,29.92,NE,51,9.0,22.0,81,0.00,,,0.00,VWS V14.01,2013-06-21 14:30:00,
2013-06-21 08:31:00,84.6,78.1,29.92,NE,44,11.0,11.0,81,0.00,,,0.00,VWS V14.01,2013-06-21 14:31:00,
2013-06-21 08:36:00,84.8,78.3,29.92,ENE,64,5.0,14.0,81,0.00,,,0.00,VWS V14.01,2013-06-21 14:36:00,
2013-06-21 08:41:00,85.1,79.0,29.92,NE,54,10.0,14.0,82,0.00,,,0.00,VWS V14.01,2013-06-21 14:41:00,
2013-06-21 08:46:00,85.1,78.6,29.92,NE,56,6.0,15.0,81,0.00,,,0.00,VWS V14.01,2013-06-21 14:46:00,
2013-06-21 08:51:00,85.1,78.2,29.92,NNE,22,11.0,15.0,80,0.00,,,0.00,VWS V14.01,2013-06-21 14:51:00,
2013-06-21 08:56:00,85.3,78.8,29.92,East,94,7.0,15.0,81,0.00,,,0.00,VWS V14.01,2013-06-21 14:56:00,
2013-06-21 09:00:00,85.4,78.5,29.92,ENE,63,5.0,15.0,80,0.00,,,0.00,VWS V14.01,2013-06-21 15:00:00,
2013-06-21 09:01:00,85.5,79.0,29.92,NE,34,7.0,12.0,81,0.00,,,0.00,VWS V14.01,2013-06-21 15:01:00,
2013-06-21 09:06:00,85.5,78.2,29.92,ENE,58,13.0,17.0,79,0.00,,,0.00,VWS V14.01,2013-06-21 15:06:00,
2013-06-21 09:11:00,85.4,78.5,29.92,ENE,73,8.0,17.0,80,0.00,,,0.00,VWS V14.01,2013-06-21 15:11:00,
2013-06-21 09:16:00,85.3,78.4,29.93,NE,44,9.0,19.0,80,0.00,,,0.00,VWS V14.01,2013-06-21 15:16:00,
2013-06-21 09:21:00,85.7,78.4,29.92,ENE,68,7.0,19.0,79,0.00,,,0.00,VWS V14.01,2013-06-21 15:21:00,
2013-06-21 09:26:00,85.5,78.6,29.92,East,93,9.0,19.0,80,0.00,,,0.00,VWS V14.01,2013-06-21 15:26:00,
2013-06-21 09:30:00,85.6,78.7,29.92,NE,41,11.0,19.0,80,0.00,,,0.00,VWS V14.01,2013-06-21 15:30:00,
2013-06-21 09:31:00,85.7,78.8,29.92,ENE,63,9.0,11.0,80,0.00,,,0.00,VWS V14.01,2013-06-21 15:31:00,
2013-06-21 09:36:00,85.9,78.2,29.92,NNE,27,7.0,18.0,78,0.00,,,0.00,VWS V14.01,2013-06-21 15:36:00,
2013-06-21 09:41:00,86.0,77.9,29.92,NE,44,4.0,18.0,77,0.00,,,0.00,VWS V14.01,2013-06-21 15:41:00,
2013-06-21 09:46:00,86.1,78.4,29.92,ENE,77,13.0,18.0,78,0.00,,,0.00,VWS V14.01,2013-06-21 15:46:00,
2013-06-21 09:51:00,86.4,78.7,29.92,SE,131,7.0,18.0,78,0.00,,,0.00,VWS V14.01,2013-06-21 15:51:00,
2013-06-21 09:56:00,86.5,78.4,29.92,East,86,11.0,18.0,77,0.00,,,0.00,VWS V14.01,2013-06-21 15:56:00,
2013-06-21 10:00:00,86.2,78.5,29.92,ENE,60,5.0,18.0,78,0.00,,,0.00,VWS V14.01,2013-06-21 16:00:00,
2013-06-21 10:01:00,86.5,78.8,29.92,NE,41,11.0,11.0,78,0.00,,,0.00,VWS V14.01,2013-06-21 16:01:00,
2013-06-21 10:07:00,86.9,78.8,29.92,NNW,344,4.0,13.0,77,0.00,,,0.00,VWS V14.01,2013-06-21 16:07:00,
2013-06-21 10:12:00,86.8,78.7,29.92,ENE,60,7.0,20.0,77,0.00,,,0.00,VWS V14.01,2013-06-21 16:12:00,
2013-06-21 10:17:00,87.0,78.9,29.92,NNE,22,7.0,20.0,77,0.00,,,0.00,VWS V14.01,2013-06-21 16:17:00,
2013-06-21 10:22:00,86.8,78.7,29.92,ENE,73,12.0,20.0,77,0.00,,,0.00,VWS V14.01,2013-06-21 16:22:00,
2013-06-21 10:27:00,87.2,78.7,29.92,ENE,73,7.0,20.0,76,0.00,,,0.00,VWS V14.01,2013-06-21 16:27:00,
2013-06-21 10:30:00,87.0,78.1,29.92,NE,49,9.0,20.0,75,0.00,,,0.00,VWS V14.01,2013-06-21 16:30:00,
2013-06-21 10:32:00,86.9,78.4,29.92,NE,44,16.0,16.0,76,0.00,,,0.00,VWS V14.01,2013-06-21 16:32:00,
2013-06-21 10:37:00,87.4,78.1,29.92,NE,56,7.0,16.0,74,0.00,,,0.00,VWS V14.01,2013-06-21 16:37:00,
2013-06-21 10:42:00,87.2,78.3,29.92,ENE,58,6.0,16.0,75,0.00,,,0.00,VWS V14.01,2013-06-21 16:42:00,
2013-06-21 10:47:00,87.4,78.5,29.92,NE,52,6.0,19.0,75,0.00,,,0.00,VWS V14.01,2013-06-21 16:47:00,
2013-06-21 10:52:00,87.1,78.6,29.92,NE,41,9.0,19.0,76,0.00,,,0.00,VWS V14.01,2013-06-21 16:52:00,
2013-06-21 10:57:00,87.0,78.5,29.92,ENE,58,5.0,19.0,76,0.00,,,0.00,VWS V14.01,2013-06-21 16:57:00,
2013-06-21 11:00:00,87.0,78.5,29.92,ENE,60,5.0,19.0,76,0.00,,,0.00,VWS V14.01,2013-06-21 17:00:00,
2013-06-21 11:02:00,87.0,78.5,29.91,ENE,73,8.0,22.0,76,0.00,,,0.00,VWS V14.01,2013-06-21 17:02:00,
2013-06-21 11:07:00,87.1,79.0,29.92,NE,41,9.0,22.0,77,0.00,,,0.00,VWS V14.01,2013-06-21 17:07:00,
2013-06-21 11:12:00,87.3,79.2,29.91,NNE,22,9.0,22.0,77,0.00,,,0.00,VWS V14.01,2013-06-21 17:12:00,
2013-06-21 11:17:00,87.2,79.5,29.91,ENE,61,6.0,22.0,78,0.00,,,0.00,VWS V14.01,2013-06-21 17:17:00,
2013-06-21 11:22:00,87.4,78.9,29.91,NE,45,7.0,22.0,76,0.00,,,0.00,VWS V14.01,2013-06-21 17:22:00,
2013-06-21 11:27:00,87.0,78.9,29.91,NE,56,5.0,22.0,77,0.00,,,0.00,VWS V14.01,2013-06-21 17:27:00,
2013-06-21 11:30:00,86.7,78.6,29.91,ENE,65,9.0,22.0,77,0.00,,,0.00,VWS V14.01,2013-06-21 17:30:00,
2013-06-21 11:32:00,86.4,78.7,29.91,ENE,57,3.0,19.0,78,0.00,,,0.00,VWS V14.01,2013-06-21 17:32:00,
2013-06-21 11:37:00,86.4,78.7,29.91,ESE,105,9.0,19.0,78,0.00,,,0.00,VWS V14.01,2013-06-21 17:37:00,
2013-06-21 11:43:00,86.6,78.9,29.91,ENE,60,8.0,19.0,78,0.00,,,0.00,VWS V14.01,2013-06-21 17:43:00,
2013-06-21 11:46:00,86.9,78.8,29.91,ENE,58,10.0,19.0,77,0.00,,,0.00,VWS V14.01,2013-06-21 17:46:00,
2013-06-21 11:48:00,87.2,79.1,29.91,ENE,66,13.0,19.0,77,0.00,,,0.00,VWS V14.01,2013-06-21 17:48:00,
2013-06-21 11:53:00,87.4,79.3,29.91,NNE,17,10.0,21.0,77,0.00,,,0.00,VWS V14.01,2013-06-21 17:53:00,
2013-06-21 11:58:00,87.1,79.0,29.91,East,79,9.0,21.0,77,0.00,,,0.00,VWS V14.01,2013-06-21 17:58:00,
2013-06-21 12:00:00,86.9,78.8,29.91,NE,54,9.0,21.0,77,0.00,,,0.00,VWS V14.01,2013-06-21 18:00:00,
2013-06-21 12:03:00,86.7,78.6,29.91,NNE,12,4.0,17.0,77,0.00,,,0.00,VWS V14.01,2013-06-21 18:03:00,
2013-06-21 12:08:00,86.9,79.6,29.90,East,80,4.0,19.0,79,0.00,,,0.00,VWS V14.01,2013-06-21 18:08:00,
2013-06-21 12:13:00,86.9,79.2,29.91,ENE,65,8.0,19.0,78,0.00,,,0.00,VWS V14.01,2013-06-21 18:13:00,
2013-06-21 12:18:00,86.8,79.1,29.90,NE,56,9.0,21.0,78,0.00,,,0.00,VWS V14.01,2013-06-21 18:18:00,
2013-06-21 12:23:00,87.3,79.6,29.90,ENE,60,19.0,22.0,78,0.00,,,0.00,VWS V14.01,2013-06-21 18:23:00,
2013-06-21 12:24:00,87.3,79.2,29.90,ENE,63,10.0,22.0,77,0.00,,,0.00,VWS V14.01,2013-06-21 18:24:00,
2013-06-21 12:29:00,87.6,79.5,29.90,ENE,66,11.0,22.0,77,0.00,,,0.00,VWS V14.01,2013-06-21 18:29:00,
2013-06-21 12:30:00,87.6,79.5,29.90,NE,56,11.0,22.0,77,0.00,,,0.00,VWS V14.01,2013-06-21 18:30:00,
2013-06-21 12:34:00,87.7,79.6,29.90,NE,37,12.0,14.0,77,0.00,,,0.00,VWS V14.01,2013-06-21 18:34:00,
2013-06-21 12:39:00,87.7,79.6,29.90,North,6,10.0,18.0,77,0.00,,,0.00,VWS V14.01,2013-06-21 18:39:00,
2013-06-21 12:44:00,87.7,79.6,29.90,NE,55,8.0,18.0,77,0.00,,,0.00,VWS V14.01,2013-06-21 18:44:00,
2013-06-21 12:45:00,87.5,79.0,29.90,NE,49,13.0,18.0,76,0.00,,,0.00,VWS V14.01,2013-06-21 18:45:00,
2013-06-21 12:46:00,87.5,79.4,29.90,ENE,70,15.0,18.0,77,0.00,,,0.00,VWS V14.01,2013-06-21 18:46:00,
2013-06-21 12:51:00,87.7,79.6,29.90,NNE,20,14.0,18.0,77,0.00,,,0.00,VWS V14.01,2013-06-21 18:51:00,
2013-06-21 12:56:00,87.5,79.8,29.90,ENE,63,11.0,18.0,78,0.00,,,0.00,VWS V14.01,2013-06-21 18:56:00,
2013-06-21 13:00:00,87.6,79.5,29.89,NE,47,15.0,18.0,77,0.00,,,0.00,VWS V14.01,2013-06-21 19:00:00,
2013-06-21 13:01:00,87.6,79.5,29.90,ENE,65,7.0,14.0,77,0.00,,,0.00,VWS V14.01,2013-06-21 19:01:00,
2013-06-21 13:06:00,87.9,79.8,29.90,NNE,25,15.0,18.0,77,0.00,,,0.00,VWS V14.01,2013-06-21 19:06:00,
2013-06-21 13:11:00,87.5,79.4,29.89,NE,34,13.0,18.0,77,0.00,,,0.00,VWS V14.01,2013-06-21 19:11:00,
2013-06-21 13:16:00,87.6,79.5,29.89,NE,49,8.0,19.0,77,0.00,,,0.00,VWS V14.01,2013-06-21 19:16:00,
2013-06-21 13:20:00,87.7,79.2,29.89,ESE,106,8.0,19.0,76,0.00,,,0.00,VWS V14.01,2013-06-21 19:20:00,
2013-06-21 13:25:00,88.0,80.3,29.89,NE,54,15.0,19.0,78,0.00,,,0.00,VWS V14.01,2013-06-21 19:25:00,
2013-06-21 13:30:00,87.7,79.6,29.88,NE,50,7.0,19.0,77,0.00,,,0.00,VWS V14.01,2013-06-21 19:30:00,
2013-06-21 13:35:00,87.6,79.5,29.88,ENE,70,13.0,19.0,77,0.00,,,0.00,VWS V14.01,2013-06-21 19:35:00,
2013-06-21 13:40:00,87.4,79.3,29.89,NE,49,10.0,19.0,77,0.00,,,0.00,VWS V14.01,2013-06-21 19:40:00,
2013-06-21 13:42:00,87.4,79.3,29.89,NNE,32,4.0,21.0,77,0.00,,,0.00,VWS V14.01,2013-06-21 19:42:00,
2013-06-21 13:43:00,87.4,79.7,29.89,ENE,61,14.0,21.0,78,0.00,,,0.00,VWS V14.01,2013-06-21 19:43:00,
2013-06-21 13:48:00,87.5,79.4,29.88,NE,39,11.0,21.0,77,0.00,,,0.00,VWS V14.01,2013-06-21 19:48:00,
2013-06-21 13:53:00,87.5,79.4,29.88,WSW,242,6.0,21.0,77,0.00,,,0.00,VWS V14.01,2013-06-21 19:53:00,
2013-06-21 13:58:00,87.2,79.5,29.88,ENE,68,10.0,21.0,78,0.00,,,0.00,VWS V14.01,2013-06-21 19:58:00,
2013-06-21 14:00:00,87.1,79.8,29.88,ESE,107,7.0,21.0,79,0.00,,,0.00,VWS V14.01,2013-06-21 20:00:00,
2013-06-21 14:03:00,87.1,79.8,29.88,NNE,27,11.0,19.0,79,0.00,,,0.00,VWS V14.01,2013-06-21 20:03:00,
2013-06-21 14:04:00,87.1,79.8,29.88,NE,45,10.0,19.0,79,0.00,,,0.00,VWS V14.01,2013-06-21 20:04:00,
2013-06-21 14:08:00,87.0,79.7,29.87,North,9,9.0,19.0,79,0.00,,,0.00,VWS V14.01,2013-06-21 20:08:00,
2013-06-21 14:11:00,87.0,79.7,29.88,NNE,20,9.0,19.0,79,0.00,,,0.00,VWS V14.01,2013-06-21 20:11:00,
2013-06-21 14:13:00,87.0,80.1,29.87,North,360,11.0,19.0,80,0.00,,,0.00,VWS V14.01,2013-06-21 20:13:00,
2013-06-21 14:18:00,87.2,79.9,29.87,NNE,32,6.0,19.0,79,0.00,,,0.00,VWS V14.01,2013-06-21 20:18:00,
2013-06-21 14:23:00,87.1,78.6,29.87,NE,56,7.0,19.0,76,0.00,,,0.00,VWS V14.01,2013-06-21 20:23:00,
2013-06-21 14:28:00,86.9,78.4,29.86,NE,46,14.0,19.0,76,0.00,,,0.00,VWS V14.01,2013-06-21 20:28:00,
2013-06-21 14:30:00,86.8,78.3,29.86,NE,49,10.0,19.0,76,0.00,,,0.00,VWS V14.01,2013-06-21 20:30:00,
2013-06-21 14:33:00,87.0,78.5,29.86,NE,49,14.0,14.0,76,0.00,,,0.00,VWS V14.01,2013-06-21 20:33:00,
2013-06-21 14:38:00,86.8,77.9,29.86,ENE,65,10.0,21.0,75,0.00,,,0.00,VWS V14.01,2013-06-21 20:38:00,
2013-06-21 14:43:00,86.5,77.6,29.86,NE,37,8.0,21.0,75,0.00,,,0.00,VWS V14.01,2013-06-21 20:43:00,
2013-06-21 14:48:00,86.4,77.9,29.86,NW,325,10.0,21.0,76,0.00,,,0.00,VWS V14.01,2013-06-21 20:48:00,
2013-06-21 14:53:00,86.3,77.8,29.86,ENE,65,12.0,21.0,76,0.00,,,0.00,VWS V14.01,2013-06-21 20:53:00,
2013-06-21 14:58:00,86.6,77.3,29.86,NE,44,9.0,21.0,74,0.00,,,0.00,VWS V14.01,2013-06-21 20:58:00,
2013-06-21 15:00:00,86.6,77.3,29.86,NE,34,9.0,21.0,74,0.00,,,0.00,VWS V14.01,2013-06-21 21:00:00,
2013-06-21 15:03:00,86.7,77.4,29.86,NE,49,10.0,15.0,74,0.00,,,0.00,VWS V14.01,2013-06-21 21:03:00,
2013-06-21 15:04:00,86.7,77.4,29.86,NNE,30,5.0,15.0,74,0.00,,,0.00,VWS V14.01,2013-06-21 21:04:00,
2013-06-21 15:09:00,87.0,77.7,29.86,NNE,29,15.0,16.0,74,0.00,,,0.00,VWS V14.01,2013-06-21 21:09:00,
2013-06-21 15:14:00,86.8,76.7,29.86,ENE,77,6.0,20.0,72,0.00,,,0.00,VWS V14.01,2013-06-21 21:14:00,
2013-06-21 15:19:00,86.6,76.9,29.86,NE,46,5.0,20.0,73,0.00,,,0.00,VWS V14.01,2013-06-21 21:19:00,
2013-06-21 15:24:00,86.6,77.3,29.86,ENE,72,7.0,20.0,74,0.00,,,0.00,VWS V14.01,2013-06-21 21:24:00,
2013-06-21 15:29:00,86.9,77.6,29.86,East,84,4.0,20.0,74,0.00,,,0.00,VWS V14.01,2013-06-21 21:29:00,
2013-06-21 15:30:00,86.9,77.6,29.86,ENE,75,9.0,20.0,74,0.00,,,0.00,VWS V14.01,2013-06-21 21:30:00,
2013-06-21 15:34:00,86.8,77.9,29.86,East,82,13.0,15.0,75,0.00,,,0.00,VWS V14.01,2013-06-21 21:34:00,
2013-06-21 15:39:00,86.8,78.7,29.86,NNE,29,4.0,16.0,77,0.00,,,0.00,VWS V14.01,2013-06-21 21:39:00,
2013-06-21 15:44:00,86.6,78.1,29.85,NW,306,8.0,20.0,76,0.00,,,0.00,VWS V14.01,2013-06-21 21:44:00,
2013-06-21 15:49:00,86.5,78.4,29.85,NE,41,6.0,20.0,77,0.00,,,0.00,VWS V14.01,2013-06-21 21:49:00,
2013-06-21 15:54:00,86.6,78.5,29.86,East,84,6.0,20.0,77,0.00,,,0.00,VWS V14.01,2013-06-21 21:54:00,
2013-06-21 15:59:00,86.6,78.9,29.86,NNW,340,15.0,20.0,78,0.00,,,0.00,VWS V14.01,2013-06-21 21:59:00,
2013-06-21 16:00:00,86.5,78.4,29.86,NE,51,11.0,20.0,77,0.00,,,0.00,VWS V14.01,2013-06-21 22:00:00,
2013-06-21 16:04:00,86.4,78.7,29.86,ENE,65,13.0,18.0,78,0.00,,,0.00,VWS V14.01,2013-06-21 22:04:00,
2013-06-21 16:09:00,86.1,78.8,29.86,ENE,62,6.0,18.0,79,0.00,,,0.00,VWS V14.01,2013-06-21 22:09:00,
2013-06-21 16:14:00,86.0,78.7,29.86,ENE,63,7.0,19.0,79,0.00,,,0.00,VWS V14.01,2013-06-21 22:14:00,
2013-06-21 16:19:00,85.7,78.8,29.86,North,9,9.0,19.0,80,0.00,,,0.00,VWS V14.01,2013-06-21 22:19:00,
2013-06-21 16:24:00,85.6,79.1,29.86,NE,53,5.0,19.0,81,0.00,,,0.00,VWS V14.01,2013-06-21 22:24:00,
2013-06-21 16:29:00,85.4,78.9,29.86,North,355,4.0,15.0,81,0.00,,,0.00,VWS V14.01,2013-06-21 22:29:00,
2013-06-21 16:34:00,85.5,79.0,29.87,NNE,23,11.0,18.0,81,0.00,,,0.00,VWS V14.01,2013-06-21 22:34:00,
2013-06-21 16:39:00,85.5,79.0,29.86,NE,47,7.0,18.0,81,0.00,,,0.00,VWS V14.01,2013-06-21 22:39:00,
2013-06-21 16:44:00,85.7,78.8,29.86,NNE,30,10.0,18.0,80,0.00,,,0.00,VWS V14.01,2013-06-21 22:44:00,
2013-06-21 16:49:00,85.7,78.8,29.87,East,84,7.0,18.0,80,0.00,,,0.00,VWS V14.01,2013-06-21 22:49:00,
2013-06-21 16:54:00,85.5,79.0,29.87,East,89,9.0,18.0,81,0.00,,,0.00,VWS V14.01,2013-06-21 22:54:00,
2013-06-21 16:59:00,85.5,79.0,29.86,NNE,23,6.0,18.0,81,0.00,,,0.00,VWS V14.01,2013-06-21 22:59:00,
2013-06-21 17:04:00,85.3,78.8,29.87,North,355,8.0,14.0,81,0.00,,,0.00,VWS V14.01,2013-06-21 23:04:00,
2013-06-21 17:09:00,85.1,79.0,29.87,North,8,7.0,14.0,82,0.00,,,0.00,VWS V14.01,2013-06-21 23:09:00,
2013-06-21 17:14:00,85.1,79.0,29.86,North,9,9.0,14.0,82,0.00,,,0.00,VWS V14.01,2013-06-21 23:14:00,
2013-06-21 17:19:00,84.9,79.2,29.86,NE,50,10.0,16.0,83,0.00,,,0.00,VWS V14.01,2013-06-21 23:19:00,
2013-06-21 17:24:00,84.5,78.8,29.86,NNE,23,6.0,16.0,83,0.00,,,0.00,VWS V14.01,2013-06-21 23:24:00,
2013-06-21 17:29:00,84.1,78.8,29.86,NE,45,9.0,16.0,84,0.00,,,0.00,VWS V14.01,2013-06-21 23:29:00,
2013-06-21 17:34:00,83.9,78.6,29.86,North,6,8.0,20.0,84,0.00,,,0.00,VWS V14.01,2013-06-21 23:34:00,
2013-06-21 17:39:00,83.9,78.9,29.86,ENE,65,6.0,20.0,85,0.00,,,0.00,VWS V14.01,2013-06-21 23:39:00,
2013-06-21 17:44:00,83.7,78.7,29.86,NE,41,7.0,21.0,85,0.00,,,0.00,VWS V14.01,2013-06-21 23:44:00,
2013-06-21 17:49:00,83.7,78.7,29.87,North,6,12.0,21.0,85,0.00,,,0.00,VWS V14.01,2013-06-21 23:49:00,
2013-06-21 17:54:00,83.8,78.4,29.87,ESE,108,4.0,21.0,84,0.00,,,0.00,VWS V14.01,2013-06-21 23:54:00,
2013-06-21 17:59:00,83.6,77.9,29.87,NE,49,9.0,21.0,83,0.00,,,0.00,VWS V14.01,2013-06-21 23:59:00,
2013-06-21 18:04:00,83.6,77.9,29.87,ENE,60,6.0,16.0,83,0.00,,,0.00,VWS V14.01,2013-06-22 00:04:00,
2013-06-21 18:09:00,83.5,77.8,29.88,NNE,13,15.0,17.0,83,0.00,,,0.00,VWS V14.01,2013-06-22 00:09:00,
2013-06-21 18:14:00,83.4,78.1,29.88,NE,56,13.0,17.0,84,0.00,,,0.00,VWS V14.01,2013-06-22 00:14:00,
2013-06-21 18:19:00,83.3,78.3,29.88,NNE,20,8.0,17.0,85,0.00,,,0.00,VWS V14.01,2013-06-22 00:19:00,
2013-06-21 18:24:00,83.4,78.8,29.88,NE,42,6.0,18.0,86,0.00,,,0.00,VWS V14.01,2013-06-22 00:24:00,
2013-06-21 18:29:00,83.4,78.4,29.88,NNE,33,10.0,20.0,85,0.00,,,0.00,VWS V14.01,2013-06-22 00:29:00,
2013-06-21 18:34:00,83.4,78.4,29.89,North,358,5.0,16.0,85,0.00,,,0.00,VWS V14.01,2013-06-22 00:34:00,
2013-06-21 18:39:00,83.5,78.2,29.89,NNE,26,9.0,16.0,84,0.00,,,0.00,VWS V14.01,2013-06-22 00:39:00,
2013-06-21 18:44:00,83.5,78.5,29.89,NNW,342,7.0,16.0,85,0.00,,,0.00,VWS V14.01,2013-06-22 00:44:00,
2013-06-21 18:49:00,83.5,78.9,29.89,NNW,348,7.0,16.0,86,0.00,,,0.00,VWS V14.01,2013-06-22 00:49:00,
2013-06-21 18:54:00,83.4,78.8,29.89,NE,53,5.0,16.0,86,0.00,,,0.00,VWS V14.01,2013-06-22 00:54:00,
2013-06-21 18:59:00,83.3,78.7,29.90,ENE,58,4.0,16.0,86,0.00,,,0.00,VWS V14.01,2013-06-22 00:59:00,
2013-06-21 19:04:00,83.3,78.7,29.90,NNE,21,8.0,18.0,86,0.00,,,0.00,VWS V14.01,2013-06-22 01:04:00,
2013-06-21 19:09:00,83.2,78.6,29.90,ENE,63,10.0,18.0,86,0.00,,,0.00,VWS V14.01,2013-06-22 01:09:00,
2013-06-21 19:14:00,83.2,78.9,29.90,ENE,72,6.0,18.0,87,0.00,,,0.00,VWS V14.01,2013-06-22 01:14:00,
2013-06-21 19:19:00,83.2,78.9,29.90,ENE,60,6.0,18.0,87,0.00,,,0.00,VWS V14.01,2013-06-22 01:19:00,
2013-06-21 19:24:00,83.0,78.4,29.90,NNE,22,3.0,18.0,86,0.00,,,0.00,VWS V14.01,2013-06-22 01:24:00,
2013-06-21 19:29:00,83.0,78.4,29.90,ENE,70,4.0,18.0,86,0.00,,,0.00,VWS V14.01,2013-06-22 01:29:00,
2013-06-21 19:34:00,83.1,78.5,29.91,ENE,69,7.0,13.0,86,0.00,,,0.00,VWS V14.01,2013-06-22 01:34:00,
2013-06-21 19:39:00,83.1,78.8,29.91,ESE,112,5.0,13.0,87,0.00,,,0.00,VWS V14.01,2013-06-22 01:39:00,
2013-06-21 19:44:00,83.1,78.8,29.91,NNE,26,5.0,13.0,87,0.00,,,0.00,VWS V14.01,2013-06-22 01:44:00,
2013-06-21 19:49:00,83.0,78.4,29.91,ENE,75,7.0,13.0,86,0.00,,,0.00,VWS V14.01,2013-06-22 01:49:00,
2013-06-21 19:54:00,83.0,78.4,29.91,ENE,72,7.0,15.0,86,0.00,,,0.00,VWS V14.01,2013-06-22 01:54:00,
2013-06-21 19:59:00,83.0,78.0,29.91,ESE,102,4.0,15.0,85,0.00,,,0.00,VWS V14.01,2013-06-22 01:59:00,
2013-06-21 20:04:00,83.0,78.0,29.91,NE,44,2.0,12.0,85,0.00,,,0.00,VWS V14.01,2013-06-22 02:04:00,
2013-06-21 20:09:00,83.0,78.4,29.91,NE,44,6.0,12.0,86,0.00,,,0.00,VWS V14.01,2013-06-22 02:09:00,
2013-06-21 20:14:00,83.0,78.4,29.91,NE,44,4.0,16.0,86,0.00,,,0.00,VWS V14.01,2013-06-22 02:14:00,
2013-06-21 20:19:00,83.0,78.4,29.91,NNE,15,8.0,16.0,86,0.00,,,0.00,VWS V14.01,2013-06-22 02:19:00,
2013-06-21 20:24:00,83.0,78.4,29.91,ENE,70,4.0,16.0,86,0.00,,,0.00,VWS V14.01,2013-06-22 02:24:00,
2013-06-21 20:29:00,83.1,78.5,29.92,ENE,69,14.0,16.0,86,0.00,,,0.00,VWS V14.01,2013-06-22 02:29:00,
2013-06-21 20:34:00,83.1,78.8,29.92,NE,51,6.0,14.0,87,0.00,,,0.00,VWS V14.01,2013-06-22 02:34:00,
2013-06-21 20:39:00,83.1,78.8,29.92,North,353,6.0,17.0,87,0.00,,,0.00,VWS V14.01,2013-06-22 02:39:00,
2013-06-21 20:44:00,83.1,78.5,29.92,NE,56,6.0,18.0,86,0.00,,,0.00,VWS V14.01,2013-06-22 02:44:00,
2013-06-21 20:49:00,83.1,78.8,29.91,ENE,65,1.0,18.0,87,0.00,,,0.00,VWS V14.01,2013-06-22 02:49:00,
2013-06-21 20:54:00,83.1,78.8,29.92,ENE,77,19.0,19.0,87,0.00,,,0.00,VWS V14.01,2013-06-22 02:54:00,
2013-06-21 20:59:00,83.1,78.8,29.92,NE,49,9.0,19.0,87,0.00,,,0.00,VWS V14.01,2013-06-22 02:59:00,
2013-06-21 21:04:00,83.1,78.8,29.92,NE,56,13.0,17.0,87,0.00,,,0.00,VWS V14.01,2013-06-22 03:04:00,
2013-06-21 21:09:00,83.1,78.8,29.92,ENE,75,7.0,17.0,87,0.00,,,0.00,VWS V14.01,2013-06-22 03:09:00,
2013-06-21 21:14:00,83.1,78.8,29.92,NNE,28,5.0,17.0,87,0.00,,,0.00,VWS V14.01,2013-06-22 03:14:00,
2013-06-21 21:19:00,83.0,78.7,29.92,ENE,75,6.0,17.0,87,0.00,,,0.00,VWS V14.01,2013-06-22 03:19:00,
2013-06-21 21:24:00,83.0,78.7,29.93,ENE,65,3.0,17.0,87,0.00,,,0.00,VWS V14.01,2013-06-22 03:24:00,
2013-06-21 21:29:00,83.0,78.4,29.93,East,79,7.0,18.0,86,0.00,,,0.00,VWS V14.01,2013-06-22 03:29:00,
2013-06-21 21:34:00,83.0,78.4,29.93,NE,49,6.0,18.0,86,0.00,,,0.00,VWS V14.01,2013-06-22 03:34:00,
2013-06-21 21:39:00,83.1,78.5,29.93,North,9,8.0,18.0,86,0.00,,,0.00,VWS V14.01,2013-06-22 03:39:00,
2013-06-21 21:44:00,83.1,78.5,29.93,NNE,31,4.0,18.0,86,0.00,,,0.00,VWS V14.01,2013-06-22 03:44:00,
2013-06-21 21:49:00,83.0,78.0,29.93,NNE,25,5.0,18.0,85,0.00,,,0.00,VWS V14.01,2013-06-22 03:49:00,
2013-06-21 21:54:00,83.0,78.0,29.93,East,83,3.0,18.0,85,0.00,,,0.00,VWS V14.01,2013-06-22 03:54:00,
2013-06-21 21:59:00,83.0,78.0,29.93,ENE,65,4.0,18.0,85,0.00,,,0.00,VWS V14.01,2013-06-22 03:59:00,
2013-06-21 22:01:00,83.0,78.0,29.93,ENE,66,6.0,10.0,85,0.00,,,0.00,VWS V14.01,2013-06-22 04:01:00,
2013-06-21 22:06:00,82.9,77.9,29.93,NE,50,6.0,12.0,85,0.00,,,0.00,VWS V14.01,2013-06-22 04:06:00,
2013-06-21 22:11:00,82.9,77.9,29.93,NE,52,9.0,17.0,85,0.00,,,0.00,VWS V14.01,2013-06-22 04:11:00,
2013-06-21 22:16:00,82.9,77.9,29.93,NE,49,9.0,17.0,85,0.00,,,0.00,VWS V14.01,2013-06-22 04:16:00,
2013-06-21 22:21:00,82.9,78.3,29.94,ENE,60,6.0,17.0,86,0.00,,,0.00,VWS V14.01,2013-06-22 04:21:00,
2013-06-21 22:26:00,82.9,78.3,29.94,NE,46,6.0,17.0,86,0.00,,,0.00,VWS V14.01,2013-06-22 04:26:00,
2013-06-21 22:31:00,82.9,78.6,29.94,ENE,73,12.0,12.0,87,0.00,,,0.00,VWS V14.01,2013-06-22 04:31:00,
2013-06-21 22:36:00,82.8,78.5,29.94,ESE,105,4.0,15.0,87,0.00,,,0.00,VWS V14.01,2013-06-22 04:36:00,
2013-06-21 22:41:00,82.9,78.6,29.94,ENE,58,5.0,16.0,87,0.00,,,0.00,VWS V14.01,2013-06-22 04:41:00,
2013-06-21 22:46:00,82.8,78.5,29.94,NE,39,11.0,16.0,87,0.00,,,0.00,VWS V14.01,2013-06-22 04:46:00,
2013-06-21 22:51:00,82.8,78.5,29.93,East,87,8.0,16.0,87,0.00,,,0.00,VWS V14.01,2013-06-22 04:51:00,
2013-06-21 22:56:00,82.9,78.6,29.94,ENE,63,9.0,16.0,87,0.00,,,0.00,VWS V14.01,2013-06-22 04:56:00,
2013-06-21 23:01:00,82.9,78.6,29.94,East,98,7.0,14.0,87,0.00,,,0.00,VWS V14.01,2013-06-22 05:01:00,
2013-06-21 23:06:00,82.8,78.5,29.93,NE,51,7.0,15.0,87,0.00,,,0.00,VWS V14.01,2013-06-22 05:06:00,
2013-06-21 23:11:00,82.8,78.5,29.93,East,88,5.0,15.0,87,0.00,,,0.00,VWS V14.01,2013-06-22 05:11:00,
2013-06-21 23:16:00,82.8,78.5,29.93,East,82,7.0,15.0,87,0.00,,,0.00,VWS V14.01,2013-06-22 05:16:00,
2013-06-21 23:21:00,82.7,78.4,29.93,ENE,60,7.0,15.0,87,0.00,,,0.00,VWS V14.01,2013-06-22 05:21:00,
2013-06-21 23:26:00,82.7,78.1,29.93,NE,37,9.0,15.0,86,0.00,,,0.00,VWS V14.01,2013-06-22 05:26:00,
2013-06-21 23:31:00,82.7,78.1,29.92,ENE,69,3.0,6.0,86,0.00,,,0.00,VWS V14.01,2013-06-22 05:31:00,
2013-06-21 23:36:00,82.7,77.7,29.93,ENE,57,5.0,14.0,85,0.00,,,0.00,VWS V14.01,2013-06-22 05:36:00,
2013-06-21 23:41:00,82.7,77.7,29.93,ENE,69,8.0,14.0,85,0.00,,,0.00,VWS V14.01,2013-06-22 05:41:00,
2013-06-21 23:46:00,82.7,77.4,29.92,East,81,5.0,14.0,84,0.00,,,0.00,VWS V14.01,2013-06-22 05:46:00,
2013-06-21 23:51:00,82.8,77.5,29.92,ENE,63,3.0,15.0,84,0.00,,,0.00,VWS V14.01,2013-06-22 05:51:00,
2013-06-21 23:56:00,82.8,77.5,29.92,NE,43,10.0,15.0,84,0.00,,,0.00,VWS V14.01,2013-06-22 05:56:00,